Hourly Weather Bárna

Today, 18 April, Sunday

Time Temperature Precipitation Wind Pressure Humidity
00:00 +5°C° 0 mm 1 mps 722 mmHg 78%
01:00 +4°C° 0 mm 1 mps 722 mmHg 80%
02:00 +4°C° 0 mm 1 mps 722 mmHg 82%
03:00 +4°C° 0 mm 1 mps 722 mmHg 83%
04:00 +3°C° 0 mm 1 mps 722 mmHg 85%
05:00 +4°C° 0 mm 1 mps 722 mmHg 82%
06:00 +5°C° 0 mm 1 mps 722 mmHg 78%
07:00 +6°C° 0 mm 1 mps 722 mmHg 75%
08:00 +7°C° 0 mm 1 mps 722 mmHg 70%
09:00 +8°C° 0 mm 1 mps 722 mmHg 66%
10:00 +9°C° 0 mm 1 mps 722 mmHg 61%
11:00 +9°C° 0.1 mm 1 mps 722 mmHg 65%
12:00 +8°C° 0.1 mm 2 mps 722 mmHg 69%
13:00 +8°C° 0.1 mm 2 mps 722 mmHg 72%
14:00 +8°C° 0.3 mm 1 mps 722 mmHg 77%
15:00 +8°C° 0.3 mm 1 mps 722 mmHg 81%
16:00 +7°C° 0.3 mm 1 mps 722 mmHg 85%
17:00 +7°C° 0.5 mm 1 mps 722 mmHg 88%
18:00 +7°C° 0.5 mm 1 mps 722 mmHg 91%
19:00 +6°C° 0.5 mm 1 mps 722 mmHg 93%
20:00 +6°C° 0.3 mm 1 mps 722 mmHg 94%
21:00 +6°C° 0.3 mm 1 mps 722 mmHg 95%
22:00 +6°C° 0.3 mm 1 mps 723 mmHg 96%
23:00 +6°C° 0.4 mm 1 mps 722 mmHg 96%

Tomorrow, 19 April, Monday

Time Temperature Precipitation Wind Pressure Humidity
00:00 +6°C° 0.4 mm 1 mps 722 mmHg 96%
01:00 +6°C° 0.4 mm 1 mps 722 mmHg 96%
02:00 +6°C° 0.5 mm 1 mps 722 mmHg 97%
03:00 +5°C° 0.5 mm 1 mps 722 mmHg 97%
04:00 +5°C° 0.5 mm 1 mps 721 mmHg 97%
05:00 +5°C° 0.3 mm 1 mps 722 mmHg 94%
06:00 +6°C° 0.3 mm 1 mps 722 mmHg 92%
07:00 +6°C° 0.3 mm 1 mps 722 mmHg 90%
08:00 +6°C° 0.1 mm 1 mps 722 mmHg 86%
09:00 +7°C° 0.1 mm 1 mps 722 mmHg 82%
10:00 +8°C° 0.1 mm 1 mps 722 mmHg 78%
11:00 +8°C° 0.1 mm 1 mps 721 mmHg 77%
12:00 +8°C° 0.1 mm 1 mps 721 mmHg 77%
13:00 +7°C° 0.1 mm 2 mps 721 mmHg 76%
14:00 +8°C° 0.2 mm 1 mps 721 mmHg 78%
15:00 +8°C° 0.2 mm 1 mps 721 mmHg 79%
16:00 +8°C° 0.2 mm 1 mps 721 mmHg 81%
17:00 +7°C° 0 mm 1 mps 720 mmHg 84%
18:00 +7°C° 0 mm 1 mps 720 mmHg 87%
19:00 +6°C° 0 mm 1 mps 720 mmHg 90%
20:00 +5°C° 0 mm 1 mps 720 mmHg 91%
21:00 +5°C° 0 mm 1 mps 720 mmHg 91%
22:00 +4°C° 0 mm 1 mps 720 mmHg 92%
23:00 +4°C° 0 mm 1 mps 720 mmHg 92%

Day after tomorrow, 20 April, Tuesday

Time Temperature Precipitation Wind Pressure Humidity
00:00 +4°C° 0 mm 1 mps 719 mmHg 92%
01:00 +4°C° 0 mm 1 mps 719 mmHg 92%
02:00 +5°C° 0 mm 1 mps 719 mmHg 91%
03:00 +5°C° 0 mm 1 mps 719 mmHg 91%
04:00 +5°C° 0 mm 1 mps 719 mmHg 91%
05:00 +5°C° 0 mm 1 mps 719 mmHg 89%
06:00 +6°C° 0 mm 1 mps 719 mmHg 88%
07:00 +6°C° 0 mm 1 mps 719 mmHg 86%
08:00 +7°C° 0 mm 1 mps 719 mmHg 84%
09:00 +8°C° 0 mm 1 mps 720 mmHg 81%
10:00 +9°C° 0 mm 1 mps 720 mmHg 79%
11:00 +9°C° 0.1 mm 1 mps 720 mmHg 78%
12:00 +9°C° 0.1 mm 1 mps 720 mmHg 78%
13:00 +9°C° 0.1 mm 1 mps 720 mmHg 77%
14:00 +10°C° 0.1 mm 1 mps 720 mmHg 76%
15:00 +10°C° 0.1 mm 1 mps 720 mmHg 74%
16:00 +10°C° 0.1 mm 1 mps 720 mmHg 72%
17:00 +9°C° 0.2 mm 1 mps 720 mmHg 78%
18:00 +8°C° 0.2 mm 1 mps 720 mmHg 84%
19:00 +7°C° 0.2 mm 1 mps 720 mmHg 90%
20:00 +7°C° 0 mm 1 mps 720 mmHg 90%
21:00 +6°C° 0 mm 1 mps 720 mmHg 91%
22:00 +5°C° 0 mm 0 mps 720 mmHg 91%
23:00 +5°C° 0 mm 0 mps 720 mmHg 91%

21 April, Wednesday

Time Temperature Precipitation Wind Pressure Humidity
00:00 +5°C° 0 mm 0 mps 720 mmHg 91%
01:00 +5°C° 0 mm 0 mps 720 mmHg 91%
02:00 +5°C° 0.1 mm 0 mps 720 mmHg 91%
03:00 +5°C° 0.1 mm 0 mps 720 mmHg 92%
04:00 +5°C° 0.1 mm 0 mps 720 mmHg 93%
05:00 +5°C° 0 mm 0 mps 721 mmHg 91%
06:00 +7°C° 0 mm 1 mps 721 mmHg 89%
07:00 +8°C° 0 mm 1 mps 721 mmHg 87%
08:00 +9°C° 0.1 mm 1 mps 721 mmHg 81%
09:00 +9°C° 0.1 mm 2 mps 721 mmHg 76%
10:00 +10°C° 0.1 mm 2 mps 722 mmHg 70%
11:00 +11°C° 0.2 mm 3 mps 721 mmHg 63%
12:00 +12°C° 0.2 mm 3 mps 721 mmHg 57%
13:00 +13°C° 0.2 mm 4 mps 721 mmHg 50%
14:00 +13°C° 0 mm 4 mps 721 mmHg 51%
15:00 +13°C° 0 mm 4 mps 721 mmHg 52%
16:00 +13°C° 0 mm 4 mps 721 mmHg 53%
17:00 +11°C° 0.1 mm 3 mps 721 mmHg 61%
18:00 +10°C° 0.1 mm 3 mps 721 mmHg 69%
19:00 +8°C° 0.1 mm 2 mps 721 mmHg 76%
20:00 +7°C° 0 mm 2 mps 722 mmHg 79%
21:00 +7°C° 0 mm 2 mps 722 mmHg 81%
22:00 +7°C° 0 mm 1 mps 722 mmHg 84%
23:00 +7°C° 0 mm 1 mps 722 mmHg 86%

22 April, Thursday

Time Temperature Precipitation Wind Pressure Humidity
00:00 +7°C° 0 mm 1 mps 722 mmHg 87%
01:00 +6°C° 0 mm 1 mps 722 mmHg 89%
02:00 +6°C° 0 mm 1 mps 722 mmHg 90%
03:00 +6°C° 0 mm 1 mps 722 mmHg 90%
04:00 +5°C° 0 mm 1 mps 722 mmHg 90%
05:00 +7°C° 0 mm 1 mps 722 mmHg 86%
06:00 +8°C° 0 mm 1 mps 723 mmHg 82%
07:00 +9°C° 0 mm 1 mps 723 mmHg 78%
08:00 +10°C° 0.1 mm 1 mps 723 mmHg 75%
09:00 +10°C° 0.1 mm 2 mps 724 mmHg 72%
10:00 +13°C° 0.1 mm 2 mps 724 mmHg 68%
11:00 +12°C° 0.4 mm 3 mps 724 mmHg 67%
12:00 +12°C° 0.4 mm 3 mps 723 mmHg 65%
13:00 +13°C° 0.4 mm 4 mps 723 mmHg 63%
14:00 +13°C° 0.1 mm 4 mps 723 mmHg 62%
15:00 +13°C° 0.1 mm 4 mps 723 mmHg 61%
16:00 +13°C° 0.1 mm 4 mps 723 mmHg 61%
17:00 +11°C° 0.1 mm 4 mps 723 mmHg 68%
18:00 +9°C° 0.1 mm 3 mps 724 mmHg 75%
19:00 +8°C° 0.1 mm 3 mps 724 mmHg 82%
20:00 +7°C° 0.1 mm 2 mps 724 mmHg 84%
21:00 +7°C° 0.1 mm 2 mps 724 mmHg 86%
22:00 +7°C° 0.1 mm 1 mps 724 mmHg 88%
23:00 +7°C° 0 mm 1 mps 724 mmHg 89%

23 April, Friday

Time Temperature Precipitation Wind Pressure Humidity
00:00 +6°C° 0 mm 1 mps 724 mmHg 90%
01:00 +6°C° 0 mm 1 mps 724 mmHg 91%
02:00 +5°C° 0 mm 1 mps 724 mmHg 91%
03:00 +5°C° 0 mm 1 mps 724 mmHg 91%
04:00 +4°C° 0 mm 1 mps 724 mmHg 92%
05:00 +4°C° 0 mm 2 mps 724 mmHg 85%
06:00 +5°C° 0 mm 2 mps 725 mmHg 77%
07:00 +4°C° 0 mm 3 mps 725 mmHg 70%
08:00 +7°C° 0 mm 3 mps 725 mmHg 63%
09:00 +8°C° 0 mm 3 mps 726 mmHg 56%
10:00 +8°C° 0 mm 4 mps 726 mmHg 49%
11:00 +10°C° 0 mm 4 mps 726 mmHg 45%
12:00 +10°C° 0 mm 4 mps 725 mmHg 42%
13:00 +10°C° 0 mm 5 mps 725 mmHg 38%
14:00 +9°C° 0 mm 5 mps 725 mmHg 40%
15:00 +9°C° 0 mm 5 mps 725 mmHg 42%
16:00 +9°C° 0 mm 5 mps 725 mmHg 44%
17:00 +7°C° 0.1 mm 4 mps 725 mmHg 53%
18:00 +5°C° 0.1 mm 3 mps 725 mmHg 63%
19:00 +4°C° 0.1 mm 2 mps 725 mmHg 73%
20:00 +3°C° 0 mm 2 mps 725 mmHg 76%
21:00 +3°C° 0 mm 1 mps 725 mmHg 80%
22:00 +3°C° 0 mm 1 mps 726 mmHg 84%
23:00 +2°C° 0 mm 1 mps 725 mmHg 86%
Show more